Lapse_Rate
4.5 4.2 3.7 3.0 2.6 1.9 1.9 0.8 0.9 -0.1 0.2 1.0 0.7 1.5 2.0 1.9 1.7 1.3 1.9 2.1 2.2 1.7 1.2 1.3 1.5 0.7 -0.2 -0.9 -1.0 -0.1 0.2 0.5 -0.3 -1.2 -0.3 0.5 0.3 1.4 2.2 1.9 2.7 2.9 3.4
4.3 3.9 3.6 2.8 2.7 2.3 2.0 1.0 -0.1 0.6 0.3 1.0 0.5 1.4 1.5 1.3 0.8 1.3 1.8 2.1 1.6 1.2 0.9 1.1 1.1 1.3 -0.2 -1.3 -1.5 -0.5 -0.4 -0.8 -0.9 -1.0 -1.0 -0.7 -0.2 1.0 1.6 1.5 2.2 2.9 3.6
4.4 3.1 3.3 3.1 3.2 2.5 1.8 0.6 0.7 0.5 0.3 0.8 1.0 1.0 0.7 0.6 0.3 0.6 1.8 1.2 0.6 0.7 0.1 0.1 0.1 -0.2 -1.0 -2.1 -1.8 -1.4 -1.9 -0.7 -1.6 -1.6 -2.0 -1.4 -0.5 1.0 -0.0 1.8 2.1 3.4 3.4
4.5 4.4 3.7 3.6 3.2 2.1 1.5 0.8 0.5 0.9 0.6 0.7 0.7 0.1 -0.1 -0.5 -0.0 0.5 0.5 0.0 0.1 0.1 -0.3 -0.3 -0.3 -0.5 -1.3 -1.9 -1.3 -1.6 -1.8 -2.2 -2.1 -1.8 -1.0 -0.4 0.3 0.9 1.2 1.2 0.7 1.7 2.1
4.5 4.7 4.1 3.6 2.9 2.2 1.6 1.2 0.9 1.0 0.9 0.9 -0.1 -0.7 -0.6 -0.1 0.2 -0.3 -0.3 -1.0 -0.9 -0.8 -0.6 -0.3 -0.1 0.5 0.4 -0.6 -1.4 -2.5 -2.4 -2.0 -2.0 -1.6 -1.0 -0.9 -0.5 -0.4 0.2 0.6 1.0 1.1 1.3
4.7 4.5 3.9 3.2 2.7 1.9 1.6 1.2 0.9 0.6 0.2 0.2 -0.1 -0.2 -0.7 1.1 -2.5 -2.6 -1.4 -1.0 -0.6 -0.6 -1.6 -1.8 -1.4 -0.3 -0.4 0.5 1.0 0.0 -1.0 -1.7 -2.0 -2.0 -1.4 -1.0 -0.6 -0.3 -0.6 -0.0 0.3 0.5 0.9
4.6 4.3 3.2 3.5 3.3 2.5 1.6 1.6 1.3 0.6 -0.0 0.1 -0.3 -0.3 -0.6 -0.5 -3.8 -3.1 -2.4 -0.5 -0.7 -1.5 -2.4 -2.7 -2.1 -1.4 -1.4 -1.8 -1.8 -0.7 -0.5 0.3 0.2 -1.3 -0.7 -0.9 -0.7 -0.8 -0.6 -0.7 -0.4 0.1 0.3
4.8 4.0 3.0 3.0 3.6 2.8 2.2 2.2 1.4 0.8 0.4 -0.1 -0.4 -0.4 -0.5 -0.4 -3.9 -3.5 -3.1 -1.3 -1.1 -1.6 -2.1 -2.4 -1.7 -3.3 -2.8 -2.7 -2.6 -1.9 -1.7 -1.2 -0.7 0.2 -0.3 -0.1 0.5 0.9 0.7 0.5 -0.3 -0.7 -1.1
5.7 4.7 4.0 4.1 3.7 2.7 2.7 2.0 1.7 1.4 1.1 0.7 0.3 -0.4 -0.1 -0.3 -3.9 -3.7 -1.9 -0.3 -0.5 -0.9 -1.1 -1.4 -1.4 -2.3 -2.3 -1.9 -1.9 -1.7 -2.4 -2.7 -1.5 -0.2 0.5 0.9 1.3 1.5 1.3 -1.1 -3.8 -3.1 -3.3
5.6 3.7 3.1 4.7 3.4 2.1 2.9 2.2 1.8 2.0 1.5 1.2 0.8 0.4 0.2 0.1 -3.6 -3.5 -0.4 0.7 -0.5 -0.1 -0.8 -1.0 -1.3 -1.3 -2.1 -2.2 -2.0 -2.5 -3.1 -4.0 -3.5 -3.6 -2.7 -1.5 -0.0 0.6 0.8 1.0 -2.2 -3.8 -4.3
5.3 4.3 4.3 5.6 3.0 3.2 3.0 2.5 2.1 2.3 2.0 1.6 1.6 1.1 0.9 0.6 -1.4 -2.7 -1.7 1.3 0.7 0.1 0.4 -1.1 -1.9 -2.2 -2.3 -2.2 -1.5 -2.2 -2.1 -3.0 -3.9 -3.5 -3.4 -3.3 -2.5 -2.0 -1.2 -0.5 -0.5 -2.9 -3.8
5.0 4.1 4.2 4.7 5.0 3.5 2.6 2.5 2.4 2.5 2.4 2.3 2.3 1.3 1.9 1.2 -0.5 -2.2 -1.7 -0.3 -0.9 1.4 0.7 -0.4 -1.4 -2.4 -2.4 -2.0 -1.9 -1.5 -1.3 -1.7 -4.3 -5.0 -5.7 -5.2 -5.2 -4.8 -3.5 -1.3 -0.4 -0.2 0.4
4.8 4.6 3.9 3.7 4.4 3.6 3.3 3.2 3.1 3.5 3.6 3.0 3.1 2.9 2.4 1.9 0.6 -1.3 -1.5 -2.2 -1.7 1.6 1.3 -0.3 -1.1 -1.7 -1.6 -1.8 -1.5 -1.5 -2.0 -3.4 -4.0 -4.5 -4.1 -4.1 -4.3 -2.2 -0.6 -1.8 -1.1 -0.6 -0.5
4.8 4.5 4.1 3.9 3.8 3.4 3.4 3.1 3.0 3.4 3.7 4.1 3.8 3.5 3.4 3.0 1.3 -0.2 -0.6 -0.3 -3.7 -1.5 -2.7 -0.5 -0.9 -1.2 -0.7 -0.9 -2.6 -2.2 -2.6 -2.8 -2.4 -2.0 -3.0 -2.9 -2.2 -2.6 -2.7 -2.4 -2.2 -2.2 -1.9
3.9 4.4 4.1 4.1 2.7 3.7 3.8 3.2 3.1 3.0 3.4 3.5 3.7 3.7 2.6 2.3 1.6 -0.2 0.0 -0.7 -0.2 -1.2 -1.8 -1.3 -1.7 -1.9 -1.9 -1.9 -2.3 -2.1 -2.7 -2.9 -2.6 -3.5 -2.9 -2.4 -2.3 -2.0 -2.1 -2.4 -2.3 -1.9 -1.1
0.9 1.5 3.4 4.7 4.2 4.1 3.4 1.7 -0.8 1.5 -0.7 0.2 1.2 3.8 3.2 2.3 -0.5 -1.3 -1.2 -0.9 -0.7 -3.1 -0.5 -0.9 -1.4 -1.0 -0.2 -0.5 -1.1 -1.3 -2.6 -3.1 -3.0 -3.0 -2.5 -2.3 -1.5 -1.5 -1.3 -1.7 -1.2 -0.9 -0.2
-0.2 -0.4 2.1 3.4 3.8 3.9 3.2 3.2 2.3 0.8 -0.4 -0.2 0.3 0.4 0.8 1.6 -1.1 -1.3 -1.4 -1.4 -1.5 -2.0 1.1 -0.2 0.0 -0.5 -0.2 -0.4 -0.8 -0.7 -1.1 -1.9 -1.9 -2.1 -1.8 -1.8 -1.2 -1.1 -1.4 -0.5 -0.2 -0.1 -0.1
0.0 -1.6 0.5 2.1 3.8 3.8 3.5 3.0 2.9 2.5 3.1 3.0 1.1 1.1 -0.4 -0.5 -0.4 -0.5 -1.4 -1.3 -2.8 -1.1 1.6 0.2 0.7 0.4 -0.3 -0.9 -1.0 -1.0 -1.0 -2.8 -2.0 -1.4 -1.5 -1.5 -1.3 -0.3 -0.3 -0.0 0.2 0.7 0.3
0.2 -0.5 0.2 0.5 0.5 1.6 3.6 3.8 3.6 3.3 3.6 3.3 2.2 0.6 -0.1 -0.8 -1.2 -0.8 -1.1 1.8 -0.4 -0.6 0.5 0.4 0.1 0.3 -0.1 -0.4 -0.9 -1.2 -0.9 -1.2 -0.8 -1.0 -0.9 -0.8 -0.8 -0.4 -0.1 0.3 0.5 0.1 0.5
1.3 -0.2 -0.1 0.5 0.1 0.4 1.2 2.2 2.7 3.3 3.4 3.0 2.7 3.3 -0.5 -0.7 -0.4 -1.3 -0.5 0.7 0.8 1.2 1.0 1.2 0.6 0.3 -0.0 -0.5 -1.3 -1.3 -1.3 -1.2 -0.9 -0.5 -0.1 -0.5 -0.3 -0.1 0.4 0.7 0.9 1.1 0.7
2.1 1.7 0.6 0.9 0.1 0.2 0.6 0.7 1.0 1.9 2.4 2.8 3.2 2.5 -0.5 1.5 2.1 0.7 -0.4 -0.2 1.4 1.2 0.8 1.2 1.1 0.5 0.1 0.9 0.3 -0.5 -0.3 -0.0 -0.0 -0.0 0.1 0.2 -0.1 0.3 0.6 1.1 1.6 1.6 2.0
2.7 2.9 2.2 1.8 1.5 0.8 0.6 0.9 0.5 0.9 1.0 0.9 0.5 0.0 -1.9 -0.2 1.6 1.0 0.5 0.4 0.6 0.9 0.6 0.9 1.3 1.1 0.6 0.6 1.2 1.1 1.3 1.0 0.6 0.5 0.5 0.5 0.7 0.5 1.4 1.4 1.9 2.1 2.2
1.6 2.1 3.0 3.3 3.0 2.2 1.8 1.7 1.5 1.2 0.8 0.5 0.1 -0.2 -0.3 -0.1 -0.3 0.1 0.7 -0.7 -0.1 0.5 1.2 1.7 1.6 1.6 2.0 1.6 2.0 2.2 2.6 2.5 2.1 1.9 1.8 1.9 1.8 1.7 1.8 2.3 2.5 2.7 2.9
2.5 2.6 2.3 2.5 2.7 3.0 2.9 2.9 2.6 2.4 2.0 1.6 1.0 0.5 0.2 0.1 -0.2 -0.5 -0.7 -1.1 -0.7 -0.6 0.5 1.3 2.1 2.3 2.0 2.2 2.5 3.3 3.6 4.0 3.9 3.0 2.7 3.0 2.8 2.6 2.9 2.9 3.3 3.2 3.3
3.5 4.4 4.2 4.0 3.4 3.1 3.2 3.2 3.3 3.0 2.9 2.6 2.2 2.0 1.7 1.2 0.9 0.3 0.3 0.4 0.4 0.2 0.2 0.5 0.7 1.0 0.7 1.0 1.4 1.9 2.4 3.1 3.3 3.2 2.8 2.9 3.0 3.1 3.3 3.4 3.5 3.3 3.3
5.3 5.5 5.6 6.1 5.3 4.8 4.2 3.5 3.4 3.6 3.5 3.4 3.3 2.9 2.6 2.2 1.9 1.5 1.3 1.2 0.8 0.5 0.3 0.2 0.2 0.5 0.8 0.8 0.5 0.7 0.9 1.3 1.4 1.3 2.0 2.4 2.8 2.8 3.1 3.1 3.6 3.6 3.9
Wind_Speed
17 14 15 13 13 13 12 10 10 7 9 9 10 9 11 10 9 7 7 7 8 7 5 7 6 6 4 4 4 2 3 3 4 1 2 6 8 12 14 14 13 12 11
16 14 14 13 13 13 12 11 9 10 7 9 9 9 8 9 8 10 9 8 9 8 7 7 7 4 6 5 4 5 4 3 4 4 2 2 3 11 17 17 14 12 13
15 14 14 14 14 14 13 11 11 10 9 8 9 10 9 8 8 7 9 9 7 8 8 8 7 7 6 3 4 5 4 3 3 4 3 2 2 4 3 8 12 12 14
16 16 16 16 14 13 12 13 13 12 11 10 9 8 8 8 8 8 8 7 7 7 7 7 7 8 8 7 5 6 4 5 4 4 2 2 2 2 2 3 3 6 5
17 17 16 14 13 12 12 13 12 12 11 11 9 7 7 8 7 8 8 8 8 7 7 6 8 11 15 12 5 6 7 4 4 4 3 2 3 2 4 3 4 2 6
17 17 14 13 13 14 13 13 12 11 10 10 10 10 9 8 11 13 11 9 8 8 7 6 7 12 13 16 13 16 13 8 6 4 4 4 4 4 4 4 3 3 2
15 15 13 14 14 13 13 14 13 12 11 11 10 10 10 7 14 15 15 8 8 7 7 7 5 5 12 9 10 12 9 11 10 7 6 6 5 7 6 4 4 3 4
16 16 16 16 16 13 14 14 13 11 13 12 11 11 10 7 14 16 16 8 7 7 8 9 8 7 8 8 7 6 6 5 7 9 7 7 8 15 12 8 6 4 1
16 16 16 16 16 16 15 14 11 11 10 11 10 10 11 9 14 15 14 9 8 9 9 11 8 9 14 15 8 7 6 3 3 6 9 10 12 17 18 9 2 3 1
17 17 16 16 16 16 14 12 9 8 9 7 8 9 10 9 13 16 14 8 8 7 6 8 15 13 18 18 8 8 7 6 6 4 4 6 9 11 18 16 6 3 3
12 11 12 13 13 13 12 9 9 8 7 7 7 5 6 8 9 14 15 10 9 8 8 6 6 18 20 21 15 9 9 8 5 6 4 3 5 9 12 13 16 5 3
13 13 11 10 9 9 13 10 10 10 9 9 9 6 6 6 10 13 14 11 11 10 9 7 7 18 19 21 16 13 13 12 4 3 2 3 3 3 7 16 16 18 16
13 13 13 13 13 13 13 12 10 11 10 10 9 8 7 6 5 13 17 10 12 9 6 8 13 18 20 18 19 18 15 5 5 4 4 4 4 9 13 7 14 17 16
10 12 13 13 13 13 11 11 10 10 9 9 9 8 7 7 7 6 7 8 4 4 5 5 6 9 11 9 4 9 5 6 7 6 4 3 3 3 4 7 4 3 3
11 2 12 11 13 12 11 11 11 12 12 11 10 10 9 9 10 10 11 7 7 5 5 3 3 3 4 4 3 5 5 5 6 4 4 4 4 4 4 4 3 3 6
13 11 6 2 9 9 9 4 8 7 13 13 11 10 8 10 15 18 18 16 15 16 3 4 4 6 8 9 8 7 5 7 6 5 5 5 6 6 6 4 4 6 8
13 13 8 5 4 3 7 7 7 4 2 7 12 14 14 13 19 19 20 18 17 13 5 6 6 8 8 8 8 9 9 9 7 7 7 7 6 6 6 7 7 7 9
16 17 10 9 5 2 4 4 3 4 4 5 4 7 9 9 14 17 15 12 3 7 8 6 9 8 8 8 8 8 7 5 7 8 7 8 8 8 7 8 8 10 9
14 13 11 10 10 9 5 2 3 4 4 3 1 1 3 3 8 8 17 7 8 9 10 9 8 9 9 8 8 8 8 8 8 7 8 8 8 8 10 9 9 12 10
13 18 14 10 10 10 9 8 7 4 2 3 4 6 3 4 4 5 7 9 7 8 8 9 8 8 8 8 7 8 7 8 8 8 9 8 8 9 10 10 10 10 10
10 11 15 10 10 9 8 8 8 7 7 6 4 3 6 7 7 6 6 7 7 7 7 8 6 5 5 7 7 8 9 9 9 9 8 9 8 8 10 10 9 10 10
9 9 10 11 10 10 9 8 8 7 7 7 6 7 9 4 3 3 5 6 6 5 4 6 6 7 7 7 8 8 9 10 9 9 9 9 8 9 9 9 9 10 9
9 10 9 8 9 10 9 9 8 8 7 7 7 7 8 7 6 4 3 2 3 4 4 6 6 6 11 13 16 13 10 10 10 10 9 9 9 9 9 10 10 10 10
8 9 9 8 7 8 8 8 8 10 9 8 8 7 7 7 7 8 7 7 5 4 3 3 4 4 6 11 14 18 18 18 16 15 17 10 10 10 9 10 10 13 11
7 7 7 6 7 7 7 7 8 8 8 8 8 7 7 6 7 7 7 6 5 6 5 9 10 12 11 9 7 9 11 15 17 17 13 12 12 13 11 10 11 11 13
6 6 6 6 6 6 6 7 7 8 7 7 7 7 7 7 6 6 6 6 6 6 8 10 12 14 14 13 15 16 17 15 13 12 8 6 6 8 8 10 14 10 12
Wind_Direction
161 158 158 164 160 159 163 161 168 155 153 155 150 153 161 160 161 156 156 160 154 152 151 155 155 148 135 128 128 120 148 133 120 177 129 149 166 176 183 186 180 182 180
161 155 158 159 161 161 163 163 158 163 158 157 148 153 155 156 158 159 160 165 157 158 162 157 157 142 141 148 142 152 152 138 128 137 106 125 168 178 179 183 191 199 197
166 150 153 162 168 164 162 160 161 157 159 157 156 163 161 161 158 157 160 160 161 163 162 164 165 152 157 158 148 146 147 126 120 140 144 160 145 155 150 198 200 207 211
169 159 161 169 169 162 161 161 162 165 163 162 168 162 162 157 159 161 155 152 158 165 165 166 165 166 164 162 153 158 142 128 120 122 112 129 130 196 153 164 192 206 206
162 165 171 165 162 156 160 162 161 166 167 166 161 159 161 163 169 163 158 157 161 161 166 165 173 178 174 171 154 167 143 133 139 139 133 151 173 168 192 201 182 174 220
169 173 166 160 164 161 159 162 160 163 163 163 171 170 171 180 165 159 154 160 167 164 167 155 160 168 170 173 176 169 165 155 159 145 167 188 195 188 166 181 152 147 221
173 173 170 167 167 167 159 162 167 169 164 175 174 173 178 180 166 164 156 164 166 167 157 153 163 162 164 155 157 160 163 180 174 162 172 191 179 190 160 172 181 163 200
176 176 173 176 169 166 166 172 172 171 176 179 179 179 176 186 171 168 161 158 162 164 166 167 168 165 177 156 151 148 147 138 166 186 194 190 197 186 177 179 175 157 71
172 172 171 174 170 168 175 175 173 171 177 184 179 174 178 186 176 168 163 168 172 176 175 178 174 173 184 175 157 167 168 171 135 154 162 167 177 182 178 132 144 117 253
178 179 175 179 175 171 171 169 168 174 174 170 176 185 184 183 182 172 173 173 174 180 187 190 185 182 182 182 174 173 181 199 165 134 124 136 155 170 182 185 163 153 142
159 161 174 175 169 165 160 164 157 161 161 166 172 179 181 179 185 184 181 180 184 182 195 195 197 194 183 187 186 185 197 158 184 178 181 185 196 203 208 210 201 162 164
155 157 167 159 148 154 155 156 155 163 169 177 177 176 190 190 180 195 194 188 177 184 201 197 192 190 189 190 190 193 169 165 153 162 155 207 205 217 221 218 216 220 221
157 166 165 163 157 157 163 171 173 181 184 187 188 190 192 197 202 192 193 195 183 192 189 185 179 188 192 196 197 188 182 170 165 173 201 209 201 212 222 221 233 233 238
171 161 168 168 164 174 174 174 176 184 187 190 192 191 188 198 207 195 201 201 145 147 122 164 191 186 190 195 169 192 181 178 188 204 207 212 188 185 208 198 212 205 217
21 166 174 163 165 174 180 175 182 192 188 187 194 187 183 200 211 187 185 190 192 170 119 101 130 153 181 193 201 196 192 175 191 183 186 197 211 210 224 194 199 194 224
24 359 12 237 171 174 164 142 25 210 182 183 173 188 204 201 170 179 191 192 175 155 146 173 188 196 202 204 206 210 206 206 210 193 202 199 215 216 225 211 199 211 232
15 1 358 23 28 148 152 159 181 15 149 201 198 195 189 184 183 187 190 189 174 156 202 195 204 201 212 208 203 202 209 213 197 203 209 213 219 224 212 224 223 224 234
13 9 9 15 9 126 101 101 126 142 185 214 211 203 223 184 192 196 184 131 128 218 207 197 213 208 206 206 205 208 210 181 200 212 214 215 215 222 228 232 227 231 234
15 9 3 9 17 14 25 85 155 163 191 200 171 218 185 218 187 190 157 191 192 204 211 212 205 207 209 206 204 204 203 204 206 205 217 216 217 212 229 233 233 227 230
14 10 13 13 14 15 16 26 22 4 294 220 220 235 144 122 175 183 201 210 201 210 210 214 208 205 206 205 200 199 203 206 209 212 220 216 218 213 228 231 230 231 226
10 11 12 16 19 15 14 16 13 14 9 7 333 295 203 203 225 202 194 202 214 208 204 206 205 201 200 207 205 205 213 220 217 214 216 219 213 219 224 228 232 230 234
11 13 15 11 10 18 14 11 14 17 12 8 3 2 347 263 273 228 208 208 215 213 189 192 200 204 201 199 210 215 220 223 221 215 216 219 216 220 224 225 231 233 233
7 11 14 20 15 11 14 14 15 13 13 11 4 5 10 7 359 347 319 248 202 202 193 206 212 215 218 220 224 225 225 225 223 213 217 219 217 221 219 226 229 233 232
2 6 6 8 10 15 16 13 13 10 11 12 10 14 13 11 10 4 10 13 17 2 335 273 254 241 238 233 229 233 233 236 230 218 212 221 222 221 223 226 230 231 235
2 10 3 4 6 9 7 13 13 11 8 7 9 7 7 12 17 19 10 7 22 30 28 30 34 29 29 7 303 285 281 268 253 234 219 224 228 225 222 228 234 236 234
352 350 0 358 2 6 9 6 8 11 8 2 3 5 3 6 4 11 11 10 24 29 30 34 35 35 35 28 32 35 30 23 15 358 296 258 242 240 237 236 240 239 242